Location: Dunedin
(45.8670°S, 170.5000°E)
Time: 08:29:33
(UTC+13:00)

CENTAUR R/B - Pass Details

Date: 24 January 2019
Orbit: 791 x 1397 km, 63.5° (Epoch: 16 February)

Event Time Altitude Azimuth Distance (km) Brightness Sun altitude
Exits shadow 23:28:59 21° 63° (ENE) 2,503 4.1 -17.5°
Maximum altitude 23:29:43 21° 70° (ENE) 2,470 4.1 -17.6°
Drops below altitude 10° 23:34:53 10° 115° (ESE) 3,052 5.0 -18.1°
Sets 23:38:09 0° 130° (SE) 3,909 5.7 -18.4°
